"Timestamp","TZ","WindDir_Mean (deg)","WindSpd_Mean (km/h)","WindSpd_Min (km/h)","WindSpd_Max (km/h)","Temp_Mean (deg)","RH_Mean (%)","MSLP_Mean (hPa)","Rain_Acc (mm)","Rain_Intensity (mm/h)","Hail_Acc (hits/cm2)","Hail_Intensity (hits/cm2hr)","Solar_Mean (W/m2)"
2018/06/06 00:00:00.011,n,164,1.44,1.08,2.16,13.8,76.5,1023.82,0,0,0,0,0.030479
2018/06/06 00:01:00.000,n,176,2.52,1.8,2.88,13.7,76.6,1023.82,0,0,0,0,0.027008
2018/06/06 00:02:00.000,n,152,0.72,0.36,1.08,13.7,76.5,1023.82,0,0,0,0,0.033951
2018/06/06 00:03:00.002,n,245,1.8,1.08,2.52,13.7,76.6,1023.82,0,0,0,0,0.032234
2018/06/06 00:04:00.000,n,316,1.44,0,1.8,13.7,76.9,1023.82,0,0,0,0,0.029602
2018/06/06 00:05:00.000,n,311,2.16,1.44,2.88,13.7,76.7,1023.82,0,0,0,0,0.031357
2018/06/06 00:06:00.009,n,222,2.52,1.8,2.88,13.7,76.7,1023.82,0,0,0,0,0.029602
2018/06/06 00:07:00.007,n,267,6.84,6.48,7.2,13.7,76.6,1023.82,0,0,0,0,0.031357
2018/06/06 00:08:00.004,n,274,5.4,4.68,5.76,13.6,76.5,1023.82,0,0,0,0,0.027885
2018/06/06 00:09:00.001,n,267,4.32,3.6,5.4,13.6,76.6,1023.82,0,0,0,0,0.027008
2018/06/06 00:10:00.000,n,286,7.56,7.2,8.64,13.6,76.7,1023.82,0,0,0,0,0.029602
2018/06/06 00:11:00.000,n,266,3.96,3.24,3.96,13.5,76.7,1023.82,0,0,0,0,0.029602
2018/06/06 00:12:00.000,n,222,1.08,0.36,1.08,13.5,76.8,1023.72,0,0,0,0,0.028725
2018/06/06 00:13:00.000,n,264,1.44,0.72,2.52,13.5,76.9,1023.72,0,0,0,0,0.032234
2018/06/06 00:14:00.005,n,271,3.96,3.6,5.04,13.4,77,1023.72,0,0,0,0,0.032234
2018/06/06 00:15:00.002,n,120,3.24,1.8,4.68,13.4,77,1023.72,0,0,0,0,0.031357
2018/06/06 00:16:00.000,n,248,0.72,0.36,1.44,13.4,77.2,1023.82,0,0,0,0,0.031357
2018/06/06 00:17:00.013,n,124,1.08,0.72,1.8,13.4,77.3,1023.82,0,0,0,0,0.030479
2018/06/06 00:18:00.011,n,196,1.8,1.44,2.52,13.4,77.4,1023.82,0,0,0,0,0.028725
2018/06/06 00:19:00.000,n,144,1.8,0.36,2.88,13.4,77.5,1023.72,0,0,0,0,0.030479
2018/06/06 00:20:00.000,n,99,0.72,0.36,1.44,13.3,77.6,1023.72,0,0,0,0,0.024376
2018/06/06 00:21:00.000,n,141,3.6,3.24,3.96,13.3,77.7,1023.72,0,0,0,0,0.025253
2018/06/06 00:22:00.006,n,146,2.52,2.16,2.88,13.3,77.7,1023.72,0,0,0,0,0.024376
2018/06/06 00:23:00.003,n,142,2.16,1.8,2.52,13.3,78,1023.72,0,0,0,0,0.027008
2018/06/06 00:24:00.000,n,150,3.24,3.24,3.6,13.3,78.1,1023.72,0,0,0,0,0.024376
2018/06/06 00:25:00.000,n,185,2.16,1.8,2.88,13.3,78.3,1023.72,0,0,0,0,0.025253
2018/06/06 00:26:00.012,n,140,1.44,0.72,1.8,13.3,78.5,1023.72,0,0,0,0,0.026093
2018/06/06 00:27:00.009,n,157,4.32,3.24,5.04,13.2,78.5,1023.72,0,0,0,0,0.021744
2018/06/06 00:28:00.000,n,184,4.32,3.96,4.68,13.2,78.8,1023.72,0,0,0,0,0.020905
2018/06/06 00:29:00.003,n,159,4.32,3.96,5.04,13.1,79,1023.72,0,0,0,0,0.027885
2018/06/06 00:30:00.000,n,187,0.72,0.36,1.44,13.1,79.2,1023.72,0,0,0,0,0.028725
2018/06/06 00:31:00.000,n,167,0.36,0.36,0.72,13,79.2,1023.72,0,0,0,0,0.023537
2018/06/06 00:32:00.000,n,146,1.08,0.72,1.44,13,79.5,1023.72,0,0,0,0,0.029602
2018/06/06 00:33:00.007,n,313,1.44,1.08,1.8,13,79.7,1023.72,0,0,0,0,0.027008
2018/06/06 00:34:00.005,n,233,2.16,1.8,2.52,13,79.8,1023.72,0,0,0,0,0.027885
2018/06/06 00:35:00.001,n,257,1.44,1.08,1.44,13,80,1023.72,0,0,0,0,0.01915
2018/06/06 00:36:00.015,n,275,2.88,2.16,3.24,13,79.9,1023.72,0,0,0,0,0.021744
2018/06/06 00:37:00.000,n,254,2.16,2.16,2.52,13,79.9,1023.72,0,0,0,0,0.027008
2018/06/06 00:38:00.000,n,248,2.16,2.16,2.52,13,80.1,1023.72,0,0,0,0,0.032196
2018/06/06 00:39:00.005,n,200,2.52,1.8,2.88,13,80,1023.72,0,0,0,0,0.033073
2018/06/06 00:40:00.002,n,282,2.88,2.16,3.24,13,80,1023.72,0,0,0,0,0.031357
2018/06/06 00:41:00.000,n,293,1.8,1.44,2.16,12.9,80.2,1023.72,0,0,0,0,0.032196
2018/06/06 00:42:00.000,n,181,0.72,0,1.44,12.9,80.2,1023.72,0,0,0,0,0.027008
2018/06/06 00:43:00.010,n,111,1.08,0.72,1.44,12.9,80.5,1023.72,0,0,0,0,0.030479
2018/06/06 00:44:00.007,n,177,1.8,1.08,2.16,13,80.2,1023.72,0,0,0,0,0.029602
2018/06/06 00:45:00.004,n,249,1.8,1.8,2.16,13,80.2,1023.72,0,0,0,0,0.027847
2018/06/06 00:46:00.001,n,223,2.52,2.16,2.52,12.9,80.1,1023.72,0,0,0,0,0.033951
2018/06/06 00:47:00.000,n,133,0.36,0,1.08,12.9,80.2,1023.72,0,0,0,0,0.034828
2018/06/06 00:48:00.000,n,141,1.8,1.44,2.16,12.9,80.2,1023.72,0,0,0,0,0.024376
2018/06/06 00:49:00.000,n,126,0.72,0.72,1.08,12.9,80.2,1023.72,0,0,0,0,0.028725
2018/06/06 00:50:00.006,n,181,2.16,1.8,2.16,12.9,80.2,1023.72,0,0,0,0,0.027847
2018/06/06 00:51:00.004,n,309,1.44,0.72,2.16,12.9,80.6,1023.72,0,0,0,0,0.027008
2018/06/06 00:52:00.002,n,263,2.16,1.44,2.52,12.9,80.6,1023.72,0,0,0,0,0.029602
2018/06/06 00:53:00.000,n,337,1.08,0.72,1.8,12.9,80.4,1023.72,0,0,0,0,0.030479
2018/06/06 00:54:00.013,n,265,1.44,1.44,2.16,12.9,80.5,1023.72,0,0,0,0,0.028725
2018/06/06 00:55:00.000,n,22,0.72,0.72,1.08,12.9,80.4,1023.72,0,0,0,0,0.031357
2018/06/06 00:56:00.000,n,257,4.32,3.96,4.32,12.9,80.5,1023.62,0,0,0,0,0.032196
2018/06/06 00:57:00.004,n,274,5.4,4.68,5.76,12.9,80.3,1023.62,0,0,0,0,0.022659
2018/06/06 00:58:00.002,n,335,1.44,1.08,2.16,12.9,80.4,1023.62,0,0,0,0,0.026093
2018/06/06 00:59:00.000,n,226,3.24,2.52,3.24,12.9,80.6,1023.62,0,0,0,0,0.031357
2018/06/06 01:00:00.000,n,256,4.32,4.32,4.68,12.9,80.3,1023.62,0,0,0,0,0.025215
2018/06/06 01:01:00.011,n,257,3.24,2.88,3.24,12.9,80.1,1023.62,0,0,0,0,0.031357
2018/06/06 01:02:00.008,n,205,1.44,1.08,1.8,12.8,80.1,1023.62,0,0,0,0,0.022659
2018/06/06 01:03:00.005,n,172,4.68,3.24,5.4,12.8,80.2,1023.62,0,0,0,0,0.021744
2018/06/06 01:04:00.002,n,256,3.24,2.88,3.6,12.8,80.2,1023.62,0,0,0,0,0.027008
2018/06/06 01:05:00.000,n,265,1.08,1.08,1.44,12.8,80.1,1023.62,0,0,0,0,0.026093
2018/06/06 01:06:00.000,n,245,5.04,4.68,6.12,12.8,80.3,1023.62,0,0,0,0,0.027847
2018/06/06 01:07:00.000,n,176,0.72,0.36,1.08,12.8,80.2,1023.62,0,0,0,0,0.025215
2018/06/06 01:08:00.007,n,190,0.72,0,1.44,12.8,80.2,1023.62,0,0,0,0,0.026093
2018/06/06 01:09:00.005,n,100,2.52,2.16,2.52,12.8,80.2,1023.62,0,0,0,0,0.021744
2018/06/06 01:10:00.003,n,227,1.08,0.36,1.08,12.8,80.2,1023.62,0,0,0,0,0.022659
2018/06/06 01:11:00.001,n,190,1.8,1.44,3.24,12.8,80.2,1023.62,0,0,0,0,0.027008
2018/06/06 01:12:00.014,n,163,2.88,2.16,3.24,12.8,80.3,1023.62,0,0,0,0,0.020866
2018/06/06 01:13:00.000,n,182,2.88,2.16,3.6,12.8,80.2,1023.62,0,0,0,0,0.01915
2018/06/06 01:14:00.000,n,167,2.88,2.52,3.24,12.8,80.2,1023.62,0,0,0,0,0.022659
2018/06/06 01:15:00.000,n,258,0.72,0.36,1.44,12.8,80.2,1023.62,0,0,0,0,0.028725
2018/06/06 01:16:00.004,n,142,2.16,1.08,2.88,12.8,80.3,1023.62,0,0,0,0,0.018272
2018/06/06 01:17:00.001,n,159,2.52,1.08,3.6,12.8,80.3,1023.62,0,0,0,0,0.026093
2018/06/06 01:18:00.000,n,229,1.44,1.08,1.8,12.8,80.3,1023.62,0,0,0,0,0.018272
2018/06/06 01:19:00.011,n,170,2.16,1.44,2.52,12.8,80.6,1023.62,0,0,0,0,0.020866
2018/06/06 01:20:00.009,n,173,1.44,0.72,2.16,12.8,80.4,1023.72,0,0,0,0,0.01915
2018/06/06 01:21:00.008,n,138,2.52,0.72,4.32,12.8,80.3,1023.72,0,0,0,0,0.018272
2018/06/06 01:22:00.000,n,153,4.32,3.96,4.68,12.7,80.3,1023.72,0,0,0,0,0.017395
2018/06/06 01:23:00.001,n,198,1.8,0.36,3.6,12.7,80.3,1023.72,0,0,0,0,0.017395
2018/06/06 01:24:00.000,n,235,1.44,0.72,1.8,12.7,80.6,1023.72,0,0,0,0,0.02964
2018/06/06 01:25:00.000,n,193,2.16,1.44,2.52,12.7,80.5,1023.72,0,0,0,0,0.033989
2018/06/06 01:26:00.007,n,281,1.44,0.36,2.88,12.8,80.5,1023.72,0,0,0,0,0.033989
2018/06/06 01:27:00.004,n,111,0.36,0.36,0.36,12.8,80.3,1023.72,0,0,0,0,0.030518
2018/06/06 01:28:00.001,n,237,3.24,2.52,4.32,12.8,80.3,1023.72,0,0,0,0,0.033989
2018/06/06 01:29:00.000,n,274,3.6,2.16,4.32,12.8,80.3,1023.72,0,0,0,0,0.035744
2018/06/06 01:30:00.011,n,242,2.88,2.16,3.24,12.8,80.5,1023.72,0,0,0,0,0.034866
2018/06/06 01:31:00.000,n,273,4.32,3.96,4.32,12.8,80.3,1023.72,0,0,0,0,0.03315
2018/06/06 01:32:00.000,n,241,3.24,1.8,4.32,12.8,80.1,1023.72,0,0,0,0,0.032272
2018/06/06 01:33:00.003,n,252,2.88,1.8,3.6,12.8,80.1,1023.72,0,0,0,0,0.03315
2018/06/06 01:34:00.000,n,222,1.08,0.36,1.8,12.8,80.2,1023.72,0,0,0,0,0.037498
2018/06/06 01:35:00.000,n,138,2.88,2.52,2.88,12.8,79.9,1023.72,0,0,0,0,0.03315
2018/06/06 01:36:00.000,n,145,1.8,1.44,1.8,12.8,79.9,1023.62,0,0,0,0,0.030518
2018/06/06 01:37:00.008,n,100,2.88,2.16,2.88,12.8,79.9,1023.62,0,0,0,0,0.02964
2018/06/06 01:38:00.005,n,193,1.44,1.08,2.16,12.8,79.8,1023.62,0,0,0,0,0.033989
2018/06/06 01:39:00.002,n,141,2.88,2.52,3.6,12.8,79.9,1023.52,0,0,0,0,0.03315
2018/06/06 01:40:00.000,n,254,2.52,1.8,2.52,12.8,79.9,1023.52,0,0,0,0,0.032272
2018/06/06 01:41:00.000,n,110,0.72,0.36,1.44,12.8,79.8,1023.52,0,0,0,0,0.036621
2018/06/06 01:42:00.000,n,18,2.16,1.8,2.16,12.8,80,1023.52,0,0,0,0,0.034866
2018/06/06 01:43:00.000,n,116,1.44,0.72,1.8,12.8,79.7,1023.42,0,0,0,0,0.040092
2018/06/06 01:44:00.004,n,245,3.24,2.88,3.6,12.8,79.6,1023.42,0,0,0,0,0.040092
2018/06/06 01:45:00.003,n,269,1.44,0.36,2.16,12.8,79.7,1023.42,0,0,0,0,0.035744
2018/06/06 01:46:00.000,n,170,0.72,0.36,1.08,12.8,79.8,1023.42,0,0,0,0,0.034866
2018/06/06 01:47:00.014,n,237,2.16,2.16,2.16,12.8,79.7,1023.42,0,0,0,0,0.035744
2018/06/06 01:48:00.011,n,225,0.72,0,1.08,12.8,80.1,1023.42,0,0,0,0,0.033989
2018/06/06 01:49:00.000,n,232,1.8,1.8,2.16,12.8,79.9,1023.42,0,0,0,0,0.04097
2018/06/06 01:50:00.000,n,256,4.32,3.96,4.68,12.8,79.9,1023.42,0,0,0,0,0.04097
2018/06/06 01:51:00.003,n,302,1.08,0.36,1.44,12.8,79.9,1023.42,0,0,0,0,0.038376
2018/06/06 01:52:00.000,n,293,3.96,3.24,4.68,12.7,80,1023.42,0,0,0,0,0.041847
2018/06/06 01:53:00.000,n,253,1.8,1.08,2.52,12.7,80,1023.52,0,0,0,0,0.038376
2018/06/06 01:54:00.010,n,273,4.32,3.96,4.68,12.7,80,1023.52,0,0,0,0,0.038376
2018/06/06 01:55:00.007,n,290,2.16,0.72,2.88,12.7,80.4,1023.52,0,0,0,0,0.035744
2018/06/06 01:56:00.005,n,211,2.16,2.16,2.88,12.7,80.2,1023.62,0,0,0,0,0.035744
2018/06/06 01:57:00.002,n,316,2.88,1.8,3.6,12.7,80.3,1023.62,0,0,0,0,0.035744
2018/06/06 01:58:00.000,n,157,1.8,1.44,2.16,12.7,80.3,1023.62,0,0,0,0,0.02964
2018/06/06 01:59:00.000,n,254,2.88,2.52,2.88,12.7,80.3,1023.62,0,0,0,0,0.04097
2018/06/06 02:00:00.000,n,238,2.16,1.44,3.24,12.7,80.3,1023.62,0,0,0,0,0.032272
2018/06/06 02:01:00.000,n,197,2.52,2.16,2.52,12.7,80.4,1023.62,0,0,0,0,0.03315
2018/06/06 02:02:00.005,n,180,1.08,0.72,1.44,12.7,80.6,1023.62,0,0,0,0,0.034866
2018/06/06 02:03:00.001,n,261,2.88,2.52,2.88,12.7,80.6,1023.62,0,0,0,0,0.031395
2018/06/06 02:04:00.000,n,96,3.24,0.72,4.68,12.7,80.7,1023.62,0,0,0,0,0.037498
2018/06/06 02:05:00.013,n,231,4.68,3.24,6.12,12.7,80.6,1023.62,0,0,0,0,0.03315
2018/06/06 02:06:00.010,n,249,1.8,1.44,2.52,12.7,80.6,1023.62,0,0,0,0,0.030518
2018/06/06 02:07:00.000,n,252,3.6,2.88,4.32,12.7,80.5,1023.62,0,0,0,0,0.028801
2018/06/06 02:08:00.000,n,198,1.08,0.72,1.8,12.7,80.5,1023.62,0,0,0,0,0.032272
2018/06/06 02:09:00.002,n,260,5.4,4.68,6.12,12.6,80.9,1023.52,0,0,0,0,0.028801
2018/06/06 02:10:00.000,n,201,1.08,0.72,1.44,12.7,81.2,1023.62,0,0,0,0,0.028801
2018/06/06 02:11:00.000,n,311,1.44,0.36,1.8,12.7,80.7,1023.62,0,0,0,0,0.030518
2018/06/06 02:12:00.009,n,236,2.88,2.52,3.24,12.7,80.6,1023.62,0,0,0,0,0.033989
2018/06/06 02:13:00.006,n,281,2.52,1.44,3.24,12.6,80.5,1023.52,0,0,0,0,0.03315
2018/06/06 02:14:00.004,n,256,2.52,2.16,2.52,12.6,80.5,1023.52,0,0,0,0,0.032272
2018/06/06 02:15:00.001,n,238,2.88,1.44,3.24,12.6,80.6,1023.52,0,0,0,0,0.036621
2018/06/06 02:16:00.000,n,224,3.6,2.88,3.96,12.6,80.5,1023.52,0,0,0,0,0.031395
2018/06/06 02:17:00.000,n,271,4.32,3.96,6.48,12.5,80.4,1023.52,0,0,0,0,0.02964
2018/06/06 02:18:00.000,n,269,3.24,2.52,3.6,12.5,80.4,1023.52,0,0,0,0,0.02964
2018/06/06 02:19:00.006,n,268,0.72,0.36,1.08,12.5,80.5,1023.62,0,0,0,0,0.032272
2018/06/06 02:20:00.004,n,263,1.8,1.08,2.16,12.4,80.5,1023.62,0,0,0,0,0.032272
2018/06/06 02:21:00.001,n,37,1.08,0.36,1.8,12.5,81.4,1023.52,0,0,0,0,0.02964
2018/06/06 02:22:00.000,n,286,2.88,2.52,3.24,12.5,81,1023.52,0,0,0,0,0.027046
2018/06/06 02:23:00.011,n,250,1.8,1.44,2.16,12.5,80.8,1023.62,0,0,0,0,0.028801
2018/06/06 02:24:00.009,n,223,1.44,1.08,2.16,12.5,80.7,1023.62,0,0,0,0,0.027046
2018/06/06 02:25:00.000,n,240,2.88,2.52,3.6,12.5,80.9,1023.62,0,0,0,0,0.03315
2018/06/06 02:26:00.002,n,273,5.04,4.32,5.76,12.5,80.8,1023.52,0,0,0,0,0.028801
2018/06/06 02:27:00.000,n,238,4.32,3.96,4.68,12.4,80.7,1023.52,0,0,0,0,0.025291
2018/06/06 02:28:00.000,n,276,2.88,2.16,3.24,12.4,80.7,1023.52,0,0,0,0,0.027046
2018/06/06 02:29:00.000,n,248,2.16,1.8,2.52,12.4,80.7,1023.52,0,0,0,0,0.023537
2018/06/06 02:30:00.007,n,271,3.24,2.88,3.96,12.3,80.7,1023.52,0,0,0,0,0.026169
2018/06/06 02:31:00.005,n,236,3.24,2.52,3.96,12.3,80.8,1023.52,0,0,0,0,0.031395
2018/06/06 02:32:00.002,n,249,5.4,5.4,6.48,12.3,80.8,1023.52,0,0,0,0,0.027885
2018/06/06 02:33:00.015,n,289,1.8,1.44,2.52,12.3,80.9,1023.42,0,0,0,0,0.024452
2018/06/06 02:34:00.000,n,267,4.68,2.88,5.76,12.3,81,1023.42,0,0,0,0,0.027885
2018/06/06 02:35:00.000,n,253,4.68,3.24,6.48,12.3,81,1023.42,0,0,0,0,0.026169
2018/06/06 02:36:00.000,n,204,1.08,0.36,1.44,12.2,81.1,1023.42,0,0,0,0,0.02182
2018/06/06 02:37:00.006,n,259,2.52,2.16,2.88,12.2,81.2,1023.52,0,0,0,0,0.026169
2018/06/06 02:38:00.003,n,267,3.96,2.88,4.32,12.2,81.6,1023.52,0,0,0,0,0.030518
2018/06/06 02:39:00.000,n,268,1.08,0.72,1.44,12.2,81.3,1023.52,0,0,0,0,0.031395
2018/06/06 02:40:00.000,n,262,2.88,2.16,3.24,12.2,81.4,1023.52,0,0,0,0,0.020065
2018/06/06 02:41:00.011,n,253,2.52,2.16,2.52,12.2,81.4,1023.52,0,0,0,0,0.02964
2018/06/06 02:42:00.009,n,256,4.32,3.96,5.04,12.2,81.3,1023.52,0,0,0,0,0.026169
2018/06/06 02:43:00.000,n,284,1.8,1.44,1.8,12.2,81.3,1023.52,0,0,0,0,0.020943
2018/06/06 02:44:00.002,n,288,2.88,2.16,3.96,12.2,81.6,1023.52,0,0,0,0,0.020065
2018/06/06 02:45:00.000,n,248,5.76,4.32,6.48,12.2,81.3,1023.52,0,0,0,0,0.02182
2018/06/06 02:46:00.000,n,276,6.12,5.4,6.84,12.1,81.2,1023.52,0,0,0,0,0.034828
2018/06/06 02:47:00.005,n,273,4.32,3.96,5.04,12.1,81.1,1023.52,0,0,0,0,0.033112
2018/06/06 02:48:00.003,n,250,4.68,4.32,5.4,12.1,81.1,1023.52,0,0,0,0,0.032234
2018/06/06 02:49:00.001,n,256,5.4,3.6,7.56,12.1,81.1,1023.52,0,0,0,0,0.033989
2018/06/06 02:50:00.000,n,265,3.96,3.24,5.4,12.1,81.1,1023.52,0,0,0,0,0.033112
2018/06/06 02:51:00.011,n,257,5.04,4.68,5.04,12,81.1,1023.52,0,0,0,0,0.031395
2018/06/06 02:52:00.000,n,254,3.96,3.6,4.32,12,81.2,1023.52,0,0,0,0,0.028763
2018/06/06 02:53:00.000,n,253,5.76,5.4,6.84,12,81.2,1023.52,0,0,0,0,0.028763
2018/06/06 02:54:00.002,n,264,5.4,5.04,5.76,12,81.2,1023.52,0,0,0,0,0.029602
2018/06/06 02:55:00.000,n,265,5.76,5.04,6.48,12,81.1,1023.52,0,0,0,0,0.033112
2018/06/06 02:56:00.000,n,263,5.4,5.04,6.48,12,81.1,1023.52,0,0,0,0,0.033112
2018/06/06 02:57:00.009,n,244,4.68,4.32,5.04,12.1,81,1023.52,0,0,0,0,0.028763
2018/06/06 02:58:00.006,n,262,6.48,5.76,6.84,12.1,81,1023.52,0,0,0,0,0.027885
2018/06/06 02:59:00.002,n,284,3.6,2.88,3.96,12.1,81,1023.52,0,0,0,0,0.023537
2018/06/06 03:00:00.000,n,247,5.4,4.68,5.76,12.1,80.9,1023.52,0,0,0,0,0.028763
2018/06/06 03:01:00.000,n,262,2.88,2.52,3.6,12.1,80.9,1023.52,0,0,0,0,0.029602
2018/06/06 03:02:00.000,n,263,6.84,6.12,7.56,12.1,80.9,1023.52,0,0,0,0,0.027046
2018/06/06 03:03:00.000,n,240,5.4,4.32,5.76,12.1,80.9,1023.52,0,0,0,0,0.033112
2018/06/06 03:04:00.004,n,257,4.32,3.96,4.32,12.1,80.8,1023.52,0,0,0,0,0.034828
2018/06/06 03:05:00.002,n,273,4.68,4.32,5.4,12.1,80.7,1023.52,0,0,0,0,0.025253
2018/06/06 03:06:00.000,n,250,2.88,2.52,3.6,12.1,80.7,1023.52,0,0,0,0,0.033112
2018/06/06 03:07:00.012,n,274,2.52,2.52,2.88,12.1,80.6,1023.52,0,0,0,0,0.025253
2018/06/06 03:08:00.009,n,243,3.24,2.52,3.6,12.1,80.6,1023.52,0,0,0,0,0.027046
2018/06/06 03:09:00.006,n,272,3.24,2.88,3.6,12.1,80.7,1023.52,0,0,0,0,0.028763
2018/06/06 03:10:00.000,n,250,5.04,4.32,5.76,12.1,80.6,1023.52,0,0,0,0,0.025253
2018/06/06 03:11:00.000,n,251,3.24,2.88,3.24,12.2,80.5,1023.52,0,0,0,0,0.028763
2018/06/06 03:12:00.000,n,251,2.16,2.16,2.52,12.2,80.5,1023.52,0,0,0,0,0.027046
2018/06/06 03:13:00.000,n,233,2.16,1.8,2.52,12.2,80.5,1023.52,0,0,0,0,0.033112
2018/06/06 03:14:00.008,n,234,3.24,2.52,3.96,12.2,80.5,1023.52,0,0,0,0,0.027046
2018/06/06 03:15:00.005,n,286,3.96,3.24,4.32,12.2,80.8,1023.52,0,0,0,0,0.025253
2018/06/06 03:16:00.002,n,261,4.32,1.8,5.4,12.2,80.5,1023.52,0,0,0,0,0.027885
2018/06/06 03:17:00.000,n,255,5.04,4.32,6.12,12.2,80.4,1023.52,0,0,0,0,0.032234
2018/06/06 03:18:00.013,n,252,5.4,5.04,5.76,12.2,80.3,1023.52,0,0,0,0,0.021782
2018/06/06 03:19:00.000,n,244,3.6,2.88,5.76,12.2,80.3,1023.52,0,0,0,0,0.024414
2018/06/06 03:20:00.000,n,255,5.04,4.32,5.76,12.2,80.4,1023.42,0,0,0,0,0.026131
2018/06/06 03:21:00.005,n,253,6.12,4.68,6.84,12.2,80.2,1023.42,0,0,0,0,0.026131
2018/06/06 03:22:00.003,n,253,5.76,5.4,6.84,12.2,80.2,1023.42,0,0,0,0,0.026131
2018/06/06 03:23:00.000,n,251,5.04,4.32,6.48,12.2,80.2,1023.42,0,0,0,0,0.028763
2018/06/06 03:24:00.000,n,274,3.96,3.6,5.04,12.2,80.2,1023.42,0,0,0,0,0.030479
2018/06/06 03:25:00.009,n,265,2.88,2.88,3.24,12.2,80.2,1023.42,0,0,0,0,0.024414
2018/06/06 03:26:00.006,n,238,2.16,1.8,2.52,12.2,80.1,1023.52,0,0,0,0,0.023537
2018/06/06 03:27:00.004,n,251,1.44,1.44,1.8,12.2,80.1,1023.42,0,0,0,0,0.025253
2018/06/06 03:28:00.001,n,330,1.8,1.44,2.52,12.2,80.4,1023.42,0,0,0,0,0.026131
2018/06/06 03:29:00.000,n,264,2.16,2.16,2.88,12.2,80.5,1023.42,0,0,0,0,0.023537
2018/06/06 03:30:00.000,n,282,1.08,0.36,2.52,12.2,80.6,1023.42,0,0,0,0,0.024414
2018/06/06 03:31:00.000,n,298,3.6,1.8,5.04,12.2,80.8,1023.42,0,0,0,0,0.025253
2018/06/06 03:32:00.007,n,259,2.52,1.44,2.88,12.3,80.5,1023.42,0,0,0,0,0.024414
2018/06/06 03:33:00.004,n,269,3.6,2.88,4.68,12.3,80.3,1023.42,0,0,0,0,0.029602
2018/06/06 03:34:00.003,n,267,3.6,3.24,4.32,12.3,80.3,1023.42,0,0,0,0,0.022659
2018/06/06 03:35:00.000,n,277,1.08,1.08,1.8,12.3,80.3,1023.42,0,0,0,0,0.027046
2018/06/06 03:36:00.013,n,271,3.24,2.88,3.6,12.3,80.2,1023.42,0,0,0,0,0.027885
2018/06/06 03:37:00.000,n,261,4.32,3.96,4.68,12.3,80.4,1023.52,0,0,0,0,0.023537
2018/06/06 03:38:00.000,n,284,2.52,1.44,3.24,12.3,80.2,1023.52,0,0,0,0,0.024414
2018/06/06 03:39:00.005,n,259,4.68,4.32,5.04,12.3,80.2,1023.52,0,0,0,0,0.024414
2018/06/06 03:40:00.002,n,271,5.4,4.32,5.76,12.3,80,1023.52,0,0,0,0,0.027046
2018/06/06 03:41:00.000,n,236,3.6,2.88,4.32,12.3,79.9,1023.52,0,0,0,0,0.025253
2018/06/06 03:42:00.000,n,265,5.04,4.68,5.4,12.3,79.8,1023.52,0,0,0,0,0.026131
2018/06/06 03:43:00.009,n,265,6.12,5.4,6.84,12.3,79.8,1023.52,0,0,0,0,0.030479
2018/06/06 03:44:00.008,n,270,4.68,4.32,5.4,12.3,79.7,1023.52,0,0,0,0,0.029602
2018/06/06 03:45:00.005,n,224,5.04,4.32,5.76,12.3,79.7,1023.52,0,0,0,0,0.019188
2018/06/06 03:46:00.002,n,261,4.68,3.24,5.76,12.3,79.6,1023.52,0,0,0,0,0.024414
2018/06/06 03:47:00.000,n,246,3.6,3.6,3.96,12.3,79.5,1023.52,0,0,0,0,0.027885
2018/06/06 03:48:00.000,n,265,2.16,1.08,3.6,12.3,79.6,1023.52,0,0,0,0,0.026131
2018/06/06 03:49:00.000,n,235,2.88,2.52,3.24,12.3,79.6,1023.52,0,0,0,0,0.025253
2018/06/06 03:50:00.006,n,239,1.08,0.36,1.8,12.3,79.5,1023.52,0,0,0,0,0.028763
2018/06/06 03:51:00.003,n,274,6.12,5.04,7.2,12.3,79.7,1023.52,0,0,0,0,0.022659
2018/06/06 03:52:00.000,n,273,3.24,2.52,3.96,12.3,79.7,1023.52,0,0,0,0,0.026131
2018/06/06 03:53:00.013,n,299,4.32,2.88,5.04,12.4,79.8,1023.52,0,0,0,0,0.021782
2018/06/06 03:54:00.011,n,247,3.96,3.24,4.32,12.4,79.6,1023.52,0,0,0,0,0.025253
2018/06/06 03:55:00.000,n,274,3.24,1.44,4.68,12.4,79.7,1023.52,0,0,0,0,0.022659
2018/06/06 03:56:00.000,n,271,3.24,3.24,3.96,12.4,79.5,1023.52,0,0,0,0,0.022659
2018/06/06 03:57:00.003,n,236,2.52,2.16,2.88,12.4,79.6,1023.52,0,0,0,0,0.024414
2018/06/06 03:58:00.000,n,267,4.32,3.24,5.04,12.4,79.5,1023.52,0,0,0,0,0.023537
2018/06/06 03:59:00.000,n,193,3.24,2.52,4.32,12.4,79.4,1023.52,0,0,0,0,0.022659
2018/06/06 04:00:00.010,n,279,2.88,2.16,3.6,12.4,79.4,1023.52,0,0,0,0,0.020065
2018/06/06 04:01:00.007,n,219,2.88,1.44,4.32,12.4,79.5,1023.52,0,0,0,0,0.023537
2018/06/06 04:02:00.004,n,240,2.16,2.16,2.52,12.4,79.4,1023.62,0,0,0,0,0.029602
2018/06/06 04:03:00.001,n,263,3.6,3.24,4.32,12.4,79.4,1023.62,0,0,0,0,0.023537
2018/06/06 04:04:00.000,n,240,3.6,2.88,3.96,12.4,79.4,1023.52,0,0,0,0,0.020905
2018/06/06 04:05:00.000,n,299,5.04,2.88,6.48,12.4,79.4,1023.52,0,0,0,0,0.022659
2018/06/06 04:06:00.000,n,221,2.16,2.16,2.52,12.5,79.3,1023.52,0,0,0,0,0.025253
2018/06/06 04:07:00.006,n,163,4.68,3.96,5.4,12.5,79.4,1023.52,0,0,0,0,0.027885
2018/06/06 04:08:00.004,n,247,1.8,1.44,2.16,12.5,79.4,1023.62,0,0,0,0,0.027885
2018/06/06 04:09:00.000,n,174,5.76,2.88,7.2,12.5,79.4,1023.62,0,0,0,0,0.021782
2018/06/06 04:10:00.000,n,181,1.44,0.72,1.8,12.5,79.3,1023.62,0,0,0,0,0.025253
2018/06/06 04:11:00.011,n,160,2.52,2.16,2.52,12.5,79.2,1023.62,0,0,0,0,0.029602
2018/06/06 04:12:00.010,n,185,2.16,1.08,3.6,12.5,79.4,1023.62,0,0,0,0,0.025253
2018/06/06 04:13:00.000,n,215,0.72,0.36,1.44,12.5,79.3,1023.62,0,0,0,0,0.026131
2018/06/06 04:14:00.002,n,284,2.16,1.8,2.52,12.5,79.4,1023.62,0,0,0,0,0.022659
2018/06/06 04:15:00.000,n,270,3.96,2.88,4.68,12.5,79.4,1023.62,0,0,0,0,0.026131
2018/06/06 04:16:00.000,n,227,1.08,0.36,1.8,12.5,79.5,1023.72,0,0,0,0,0.022659
2018/06/06 04:17:00.000,n,227,2.88,2.16,3.24,12.5,79.5,1023.72,0,0,0,0,0.022659
2018/06/06 04:18:00.007,n,237,1.44,1.08,1.8,12.5,79.5,1023.72,0,0,0,0,0.029602
2018/06/06 04:19:00.005,n,268,0.36,0.36,1.08,12.5,79.5,1023.72,0,0,0,0,0.022659
2018/06/06 04:20:00.003,n,289,2.16,2.16,2.16,12.5,79.4,1023.72,0,0,0,0,0.031395
2018/06/06 04:21:00.000,n,264,3.96,2.88,5.04,12.5,79.8,1023.72,0,0,0,0,0.027046
2018/06/06 04:22:00.000,n,277,2.16,1.44,2.52,12.5,79.8,1023.72,0,0,0,0,0.030479
2018/06/06 04:23:00.000,n,270,1.8,1.08,2.16,12.5,79.7,1023.72,0,0,0,0,0.030479
2018/06/06 04:24:00.000,n,268,3.96,2.16,4.68,12.4,79.4,1023.72,0,0,0,0,0.025253
2018/06/06 04:25:00.006,n,256,3.6,3.24,3.96,12.4,79.7,1023.72,0,0,0,0,0.029602
2018/06/06 04:26:00.003,n,271,2.16,1.8,2.52,12.4,79.7,1023.82,0,0,0,0,0.027885
2018/06/06 04:27:00.000,n,38,1.44,1.08,1.8,12.4,79.8,1023.82,0,0,0,0,0.032234
2018/06/06 04:28:00.000,n,273,4.68,4.32,5.04,12.4,79.8,1023.82,0,0,0,0,0.029602
2018/06/06 04:29:00.012,n,47,1.08,0.72,1.08,12.3,79.9,1023.82,0,0,0,0,0.025253
2018/06/06 04:30:00.010,n,256,1.8,1.08,2.88,12.3,79.9,1023.82,0,0,0,0,0.028763
2018/06/06 04:31:00.000,n,188,1.44,0.72,1.8,12.3,80,1023.82,0,0,0,0,0.025253
2018/06/06 04:32:00.000,n,253,3.6,3.24,3.96,12.3,80,1023.92,0,0,0,0,0.027885
2018/06/06 04:33:00.001,n,256,2.16,1.8,2.52,12.3,80.1,1023.82,0,0,0,0,0.026131
2018/06/06 04:34:00.000,n,186,1.08,0.72,1.44,12.3,80,1023.82,0,0,0,0,0.025253
2018/06/06 04:35:00.000,n,246,3.6,2.52,3.96,12.3,80,1023.82,0,0,0,0,0.025253
2018/06/06 04:36:00.008,n,272,3.96,3.24,4.32,12.3,80.1,1023.82,0,0,0,0,0.028763
2018/06/06 04:37:00.005,n,264,2.88,2.52,3.96,12.2,80.2,1023.82,0,0,0,0,0.030479
2018/06/06 04:38:00.002,n,262,2.88,2.16,3.24,12.2,80.2,1023.82,0,0,0,0,0.024414
2018/06/06 04:39:00.015,n,261,4.32,3.6,5.04,12.2,80.2,1023.82,0,0,0,0,0.024414
2018/06/06 04:40:00.000,n,271,3.24,2.88,3.6,12.2,80.3,1023.92,0,0,0,0,0.024414
2018/06/06 04:41:00.000,n,266,5.4,4.32,6.12,12.2,80.4,1023.92,0,0,0,0,0.029602
2018/06/06 04:42:00.000,n,268,7.2,4.32,10.08,12.1,80.3,1023.92,0,0,0,0,0.023537
2018/06/06 04:43:00.006,n,245,7.2,6.48,7.56,12.1,80.4,1023.92,0,0,0,0,0.021782
2018/06/06 04:44:00.004,n,253,3.24,2.16,3.6,12.1,80.4,1023.92,0,0,0,0,0.026131
2018/06/06 04:45:00.000,n,262,3.96,2.16,5.76,12.1,80.3,1023.92,0,0,0,0,0.025253
2018/06/06 04:46:00.000,n,268,5.04,4.68,5.4,12,80.4,1023.92,0,0,0,0,0.026131
2018/06/06 04:47:00.010,n,266,5.04,4.68,5.76,12,80.4,1023.92,0,0,0,0,0.027046
2018/06/06 04:48:00.007,n,273,6.12,5.4,6.48,12,80.4,1023.92,0,0,0,0,0.027046
2018/06/06 04:49:00.000,n,284,5.4,4.32,6.48,12,80.4,1023.92,0,0,0,0,0.022659
2018/06/06 04:50:00.001,n,266,6.84,5.4,8.64,11.9,80.4,1023.92,0,0,0,0,0.027046
2018/06/06 04:51:00.000,n,277,5.76,5.4,6.48,11.9,80.4,1023.92,0,0,0,0,0.024414
2018/06/06 04:52:00.000,n,297,3.6,2.88,4.32,11.9,80.5,1023.92,0,0,0,0,0.024414
2018/06/06 04:53:00.008,n,259,7.56,5.76,8.64,11.9,80.5,1023.82,0,0,0,0,0.030479
2018/06/06 04:54:00.006,n,256,7.56,7.2,8.28,11.9,80.4,1023.82,0,0,0,0,0.023537
2018/06/06 04:55:00.002,n,273,4.32,3.24,5.4,11.9,80.4,1023.82,0,0,0,0,0.021782